| time (UTC) | temp F | wind direction | speed knots | gust knots | rain 1hr in | rain 24hr in | rain mn in | humidity % | barometer mb |
| 20260504081705 | 53 | 312 | 0.9 | 4.3 | 0.00 | 0.02 | 0.00 | 49 | 1016.8 |
| 20260504080705 | 53 | 342 | 1.7 | 5.2 | 0.00 | 0.02 | 0.00 | 48 | 1016.9 |
| 20260504080205 | 53 | 336 | 0.9 | 6.1 | 0.00 | 0.02 | 0.00 | 49 | 1016.8 |
| 20260504070205 | 54 | 314 | 2.6 | 7.8 | 0.00 | 0.02 | 0.00 | 47 | 1017.1 |
| 20260504060204 | 51 | 304 | 3.5 | 7.0 | 0.00 | 0.02 | 0.00 | 53 | 1017.3 |
| 20260504050705 | 50 | 291 | 1.7 | 4.3 | 0.00 | 0.02 | 0.00 | 63 | 1017.4 |
| 20260504050205 | 49 | 343 | 0.0 | 0.0 | 0.00 | 0.02 | 0.00 | 66 | 1017.3 |
| 20260504045706 | 49 | 343 | 0.0 | 0.0 | 0.00 | 0.02 | 0.00 | 67 | 1017.2 |
| 20260504044705 | 50 | 343 | 0.0 | 0.0 | 0.00 | 0.02 | 0.00 | 65 | 1017.1 |
| 20260504044205 | 50 | 343 | 0.0 | 0.0 | 0.00 | 0.02 | 0.00 | 65 | 1017.1 |
| 20260504043705 | 49 | 343 | 0.0 | 5.2 | 0.00 | 0.02 | 0.00 | 65 | 1016.9 |
| 20260504043205 | 49 | 343 | 1.7 | 5.2 | 0.00 | 0.02 | 0.00 | 64 | 1016.9 |
| 20260504042705 | 49 | 248 | 0.0 | 2.6 | 0.00 | 0.02 | 0.00 | 66 | 1016.9 |
| 20260504042205 | 49 | 59 | 0.0 | 0.0 | 0.00 | 0.02 | 0.00 | 65 | 1016.9 |
| 20260504041204 | 48 | 59 | 0.0 | 0.0 | 0.00 | 0.02 | 0.00 | 61 | 1016.9 |
| 20260504040704 | 48 | 59 | 0.0 | 0.0 | 0.00 | 0.02 | 0.00 | 64 | 1016.9 |
| 20260504040205 | 47 | 59 | 0.0 | 0.0 | 0.00 | 0.02 | 0.00 | 64 | 1017.0 |
| 20260504035204 | 47 | 59 | 0.0 | 0.0 | 0.00 | 0.02 | 0.02 | 68 | 1016.9 |
| 20260504034205 | 47 | 59 | 0.0 | 0.0 | 0.00 | 0.02 | 0.02 | 65 | 1016.9 |
| 20260504033705 | 47 | 59 | 0.0 | 0.0 | 0.00 | 0.02 | 0.02 | 65 | 1017.0 |
| 20260504032705 | 47 | 59 | 0.0 | 0.0 | 0.00 | 0.02 | 0.02 | 63 | 1017.0 |
| 20260504032205 | 47 | 59 | 0.0 | 0.0 | 0.00 | 0.02 | 0.02 | 65 | 1017.0 |
| 20260504031205 | 48 | 59 | 0.0 | 0.0 | 0.00 | 0.02 | 0.02 | 62 | 1017.0 |
| 20260504030705 | 48 | 59 | 0.0 | 0.0 | 0.00 | 0.02 | 0.02 | 62 | 1017.0 |
| 20260504030204 | 47 | 59 | 0.0 | 0.0 | 0.00 | 0.02 | 0.02 | 65 | 1017.0 |
| 20260504025705 | 47 | 59 | 0.0 | 0.0 | 0.00 | 0.02 | 0.02 | 66 | 1017.0 |
| 20260504024704 | 48 | 59 | 0.0 | 0.0 | 0.00 | 0.02 | 0.02 | 65 | 1017.0 |
| 20260504023705 | 49 | 59 | 0.0 | 0.0 | 0.00 | 0.02 | 0.02 | 61 | 1017.0 |
| 20260504022705 | 50 | 59 | 0.0 | 1.7 | 0.00 | 0.02 | 0.02 | 59 | 1017.0 |
| 20260504022205 | 50 | 66 | 0.0 | 0.0 | 0.00 | 0.02 | 0.02 | 56 | 1016.9 |
| 20260504021205 | 51 | 66 | 0.9 | 1.7 | 0.00 | 0.02 | 0.02 | 54 | 1016.7 |
| 20260504020704 | 51 | 112 | 0.0 | 0.0 | 0.00 | 0.02 | 0.02 | 53 | 1016.7 |
| 20260504020204 | 51 | 112 | 0.0 | 0.0 | 0.00 | 0.02 | 0.02 | 52 | 1016.5 |
| 20260504015705 | 51 | 112 | 0.0 | 0.0 | 0.00 | 0.02 | 0.02 | 53 | 1016.4 |
| 20260504015205 | 51 | 112 | 0.0 | 0.0 | 0.00 | 0.02 | 0.02 | 53 | 1016.5 |
| 20260504014705 | 51 | 112 | 0.0 | 0.0 | 0.00 | 0.02 | 0.02 | 54 | 1016.5 |
| 20260504014205 | 51 | 112 | 0.0 | 0.0 | 0.00 | 0.02 | 0.02 | 52 | 1016.4 |
| 20260504013704 | 51 | 112 | 0.0 | 0.0 | 0.00 | 0.02 | 0.02 | 53 | 1016.3 |
| 20260504013205 | 52 | 112 | 0.0 | 2.6 | 0.00 | 0.02 | 0.02 | 52 | 1016.1 |
| 20260504012705 | 52 | 112 | 0.9 | 2.6 | 0.00 | 0.02 | 0.02 | 52 | 1016.2 |
| 20260504012205 | 52 | 116 | 0.0 | 2.6 | 0.00 | 0.02 | 0.02 | 50 | 1016.0 |
| 20260504011706 | 53 | 138 | 0.0 | 0.0 | 0.00 | 0.02 | 0.02 | 48 | 1016.0 |
| 20260504011206 | 53 | 138 | 0.0 | 0.0 | 0.00 | 0.02 | 0.02 | 48 | 1015.9 |
| 20260504005705 | 54 | 138 | 0.0 | 4.3 | 0.00 | 0.02 | 0.02 | 46 | 1015.8 |
| 20260504005205 | 54 | 171 | 0.9 | 4.3 | 0.00 | 0.02 | 0.02 | 44 | 1015.8 |
| 20260504004706 | 55 | 89 | 0.0 | 2.6 | 0.00 | 0.02 | 0.02 | 43 | 1015.7 |
| 20260504004205 | 56 | 289 | 0.0 | 0.0 | 0.00 | 0.02 | 0.02 | 41 | 1015.6 |
| 20260504003704 | 56 | 289 | 0.0 | 0.0 | 0.00 | 0.02 | 0.02 | 40 | 1015.6 |
| 20260504002706 | 58 | 289 | 0.0 | 0.0 | 0.00 | 0.02 | 0.02 | 35 | 1015.5 |
| 20260504001704 | 59 | 289 | 0.0 | 0.0 | 0.00 | 0.02 | 0.02 | 33 | 1015.6 |
| 20260504001205 | 60 | 289 | 0.0 | 0.0 | 0.00 | 0.02 | 0.02 | 29 | 1015.6 |
| 20260504000705 | 61 | 289 | 0.0 | 0.0 | 0.00 | 0.02 | 0.02 | 27 | 1015.6 |
| 20260504000205 | 63 | 289 | 0.0 | 4.3 | 0.00 | 0.02 | 0.02 | 27 | 1015.6 |
| 20260503235705 | 63 | 289 | 0.0 | 4.3 | 0.00 | 0.02 | 0.02 | 24 | 1015.5 |
| 20260503235205 | 63 | 293 | 1.7 | 5.2 | 0.00 | 0.02 | 0.02 | 21 | 1015.6 |
| 20260503234704 | 64 | 222 | 1.7 | 7.8 | 0.00 | 0.02 | 0.02 | 22 | 1015.5 |
| 20260503234204 | 64 | 257 | 2.6 | 7.8 | 0.00 | 0.02 | 0.02 | 21 | 1015.5 |
| 20260503233705 | 64 | 291 | 4.3 | 8.7 | 0.00 | 0.02 | 0.02 | 20 | 1015.6 |
| 20260503233204 | 64 | 277 | 2.6 | 8.7 | 0.00 | 0.02 | 0.02 | 20 | 1015.5 |
| 20260503232705 | 65 | 284 | 4.3 | 7.8 | 0.00 | 0.02 | 0.02 | 18 | 1015.5 |
| 20260503232205 | 65 | 290 | 4.3 | 7.0 | 0.00 | 0.02 | 0.02 | 18 | 1015.5 |
| 20260503231705 | 65 | 303 | 4.3 | 10.4 | 0.00 | 0.02 | 0.02 | 18 | 1015.5 |
| 20260503231205 | 65 | 266 | 5.2 | 10.4 | 0.00 | 0.02 | 0.02 | 17 | 1015.4 |
| 20260503230205 | 66 | 261 | 6.1 | 12.2 | 0.00 | 0.02 | 0.02 | 17 | 1015.3 |
| 20260503225205 | 66 | 288 | 2.6 | 12.2 | 0.00 | 0.02 | 0.02 | 19 | 1015.3 |
| 20260503224204 | 66 | 253 | 7.0 | 13.0 | 0.00 | 0.02 | 0.02 | 16 | 1015.4 |
| 20260503223705 | 66 | 282 | 6.1 | 13.0 | 0.00 | 0.02 | 0.02 | 18 | 1015.5 |
| 20260503223205 | 66 | 263 | 7.8 | 13.0 | 0.00 | 0.02 | 0.02 | 16 | 1015.5 |
| 20260503222705 | 66 | 324 | 2.6 | 8.7 | 0.00 | 0.02 | 0.02 | 20 | 1015.4 |
| 20260503222205 | 65 | 260 | 2.6 | 10.4 | 0.00 | 0.02 | 0.02 | 18 | 1015.5 |
| 20260503221705 | 65 | 338 | 6.1 | 10.4 | 0.00 | 0.02 | 0.02 | 18 | 1015.5 |
| 20260503221205 | 66 | 288 | 4.3 | 7.8 | 0.00 | 0.02 | 0.02 | 22 | 1015.5 |
| 20260503220705 | 65 | 318 | 2.6 | 8.7 | 0.00 | 0.02 | 0.02 | 20 | 1015.6 |
| 20260503220205 | 65 | 313 | 5.2 | 10.4 | 0.00 | 0.02 | 0.02 | 20 | 1015.6 |
| 20260503215704 | 65 | 315 | 5.2 | 10.4 | 0.00 | 0.02 | 0.02 | 17 | 1015.7 |
| 20260503215204 | 65 | 308 | 6.1 | 8.7 | 0.00 | 0.02 | 0.02 | 19 | 1015.7 |
| 20260503214706 | 66 | 233 | 2.6 | 8.7 | 0.00 | 0.02 | 0.02 | 19 | 1015.8 |
| 20260503214206 | 65 | 297 | 1.7 | 13.0 | 0.00 | 0.02 | 0.02 | 19 | 1015.8 |
| 20260503213705 | 65 | 321 | 5.2 | 13.0 | 0.00 | 0.02 | 0.02 | 22 | 1015.9 |
| 20260503213205 | 65 | 297 | 5.2 | 11.3 | 0.00 | 0.02 | 0.02 | 19 | 1015.9 |
| 20260503212705 | 67 | 314 | 6.1 | 10.4 | 0.00 | 0.02 | 0.02 | 19 | 1015.8 |
| 20260503211205 | 65 | 194 | 4.3 | 11.3 | 0.00 | 0.02 | 0.02 | 21 | 1016.0 |
| 20260503210205 | 66 | 236 | 4.3 | 10.4 | 0.00 | 0.02 | 0.02 | 19 | 1016.0 |
| 20260503205705 | 66 | 277 | 2.6 | 13.0 | 0.00 | 0.02 | 0.02 | 20 | 1016.0 |
| 20260503205205 | 65 | 230 | 6.1 | 13.0 | 0.00 | 0.02 | 0.02 | 19 | 1016.1 |
| 20260503204705 | 65 | 340 | 0.9 | 10.4 | 0.00 | 0.02 | 0.02 | 22 | 1016.0 |
| 20260503204205 | 64 | 210 | 4.3 | 11.3 | 0.00 | 0.02 | 0.02 | 21 | 1016.2 |
| 20260503203704 | 65 | 263 | 6.1 | 12.2 | 0.00 | 0.02 | 0.02 | 20 | 1016.3 |
| 20260503203205 | 64 | 317 | 4.3 | 12.2 | 0.00 | 0.02 | 0.02 | 23 | 1016.2 |
| 20260503202704 | 64 | 282 | 4.3 | 12.2 | 0.00 | 0.02 | 0.02 | 22 | 1016.2 |
| 20260503202204 | 63 | 334 | 5.2 | 12.2 | 0.00 | 0.02 | 0.02 | 21 | 1016.3 |
| 20260503201705 | 63 | 337 | 5.2 | 8.7 | 0.00 | 0.02 | 0.02 | 21 | 1016.3 |
| 20260503201205 | 63 | 306 | 4.3 | 10.4 | 0.00 | 0.02 | 0.02 | 22 | 1016.5 |
| 20260503200704 | 64 | 310 | 1.7 | 10.4 | 0.00 | 0.02 | 0.02 | 20 | 1016.5 |
| 20260503200205 | 64 | 315 | 6.1 | 10.4 | 0.00 | 0.02 | 0.02 | 22 | 1016.8 |
| 20260503195704 | 64 | 245 | 5.2 | 10.4 | 0.00 | 0.02 | 0.02 | 23 | 1016.8 |
| 20260503195205 | 63 | 299 | 6.1 | 11.3 | 0.00 | 0.02 | 0.02 | 22 | 1016.9 |
| 20260503194705 | 64 | 292 | 6.1 | 12.2 | 0.00 | 0.02 | 0.02 | 21 | 1017.1 |
| 20260503194205 | 64 | 262 | 6.1 | 13.9 | 0.00 | 0.02 | 0.02 | 22 | 1017.1 |
| 20260503193704 | 63 | 240 | 6.1 | 13.9 | 0.00 | 0.02 | 0.02 | 23 | 1017.2 |
| 20260503193205 | 61 | 332 | 6.1 | 12.2 | 0.00 | 0.02 | 0.02 | 24 | 1017.1 |
| 20260503192705 | 62 | 314 | 6.1 | 12.2 | 0.00 | 0.02 | 0.02 | 23 | 1017.2 |
| 20260503192205 | 61 | 330 | 7.8 | 12.2 | 0.00 | 0.02 | 0.02 | 23 | 1017.3 |
| 20260503191705 | 61 | 288 | 4.3 | 12.2 | 0.00 | 0.02 | 0.02 | 24 | 1017.3 |
| 20260503191204 | 62 | 345 | 6.1 | 14.8 | 0.00 | 0.02 | 0.02 | 29 | 1017.3 |
| 20260503190704 | 62 | 322 | 6.1 | 14.8 | 0.00 | 0.02 | 0.02 | 23 | 1017.4 |
| 20260503190205 | 63 | 208 | 3.5 | 10.4 | 0.00 | 0.02 | 0.02 | 26 | 1017.5 |
| 20260503185705 | 61 | 250 | 3.5 | 13.0 | 0.00 | 0.02 | 0.02 | 25 | 1017.7 |
| 20260503184204 | 61 | 18 | 4.3 | 13.9 | 0.00 | 0.02 | 0.02 | 27 | 1018.0 |
| 20260503183705 | 60 | 308 | 6.1 | 13.9 | 0.00 | 0.02 | 0.02 | 26 | 1018.0 |
| 20260503183205 | 60 | 336 | 7.8 | 13.0 | 0.00 | 0.02 | 0.02 | 29 | 1018.2 |
| 20260503182705 | 59 | 309 | 7.8 | 13.0 | 0.00 | 0.02 | 0.02 | 27 | 1018.2 |
| 20260503182204 | 59 | 332 | 4.3 | 12.2 | 0.00 | 0.02 | 0.02 | 27 | 1018.3 |
| 20260503181705 | 59 | 293 | 6.1 | 12.2 | 0.00 | 0.02 | 0.02 | 26 | 1018.4 |
| 20260503181205 | 59 | 323 | 7.8 | 12.2 | 0.00 | 0.02 | 0.02 | 28 | 1018.4 |
| 20260503180705 | 60 | 284 | 3.5 | 11.3 | 0.00 | 0.02 | 0.02 | 29 | 1018.4 |
| 20260503180205 | 59 | 319 | 4.3 | 13.9 | 0.00 | 0.02 | 0.02 | 30 | 1018.5 |
| 20260503175704 | 58 | 321 | 9.6 | 13.9 | 0.00 | 0.02 | 0.02 | 27 | 1018.6 |
| 20260503175205 | 59 | 312 | 4.3 | 12.2 | 0.00 | 0.02 | 0.02 | 32 | 1018.6 |
| 20260503174705 | 58 | 295 | 6.1 | 12.2 | 0.00 | 0.02 | 0.02 | 29 | 1018.8 |
| 20260503173704 | 58 | 299 | 6.1 | 13.0 | 0.00 | 0.02 | 0.02 | 31 | 1018.9 |
| 20260503173204 | 58 | 305 | 5.2 | 13.9 | 0.00 | 0.02 | 0.02 | 34 | 1018.9 |
| 20260503172705 | 59 | 4 | 7.8 | 14.8 | 0.00 | 0.02 | 0.02 | 30 | 1018.9 |
| 20260503172205 | 58 | 303 | 2.6 | 14.8 | 0.00 | 0.02 | 0.02 | 31 | 1019.1 |
| 20260503171705 | 57 | 305 | 9.6 | 14.8 | 0.00 | 0.02 | 0.02 | 30 | 1019.3 |
| 20260503171205 | 58 | 256 | 6.1 | 12.2 | 0.01 | 0.02 | 0.02 | 30 | 1019.3 |
| 20260503170705 | 56 | 290 | 4.3 | 13.0 | 0.01 | 0.02 | 0.02 | 32 | 1019.5 |
| 20260503170205 | 57 | 249 | 7.0 | 13.0 | 0.01 | 0.02 | 0.02 | 32 | 1019.5 |
| 20260503150704 | 52 | 283 | 2.6 | 10.4 | 0.00 | 0.00 | 0.00 | 41 | 1020.3 |
| 20260503150205 | 53 | 351 | 4.3 | 10.4 | 0.00 | 0.00 | 0.00 | 43 | 1020.3 |
| 20260503140205 | 50 | 318 | 5.2 | 8.7 | 0.00 | 0.00 | 0.00 | 43 | 1020.5 |
| 20260503131205 | 47 | 351 | 5.2 | 13.9 | 0.00 | 0.00 | 0.00 | 47 | 1020.4 |
| 20260503130205 | 47 | 330 | 7.0 | 18.2 | 0.00 | 0.00 | 0.00 | 47 | 1020.3 |
| 20260503120205 | 44 | 309 | 5.2 | 10.4 | 0.00 | 0.00 | 0.00 | 58 | 1019.9 |
| 20260503110705 | 40 | 146 | 0.0 | 1.7 | 0.00 | 0.00 | 0.00 | 74 | 1019.2 |
| 20260503110204 | 39 | 145 | 0.0 | 0.0 | 0.00 | 0.00 | 0.00 | 77 | 1019.2 |
| 20260503100205 | 38 | 145 | 0.0 | 4.3 | 0.00 | 0.00 | 0.00 | 82 | 1018.3 |